THORAD AGENA D DEB

Satellite information

Favourite Embed

Satellite Type and Status

DEBRISIN ORBIT

Key statistics

Satellite THORAD AGENA D DEB at a glance.

Uptime

20339

Days in orbit

Revolutions

≈ 14.6

Per day

Orbit

SSO

Sun Synchronous Orbit

Inclination

100.0

Latest

Satellite identification and parameters

Extended collection of information and parameters for THORAD AGENA D DEB.

Object identification

Identified? True

Debris? True

Object name: THORAD AGENA D DEB

International designator: 1970-025AM

Object number (NORAD): 4653

Object ID (CCSDS): 4653

Country: UNITED STATES OF AMERICA (US)

Current information (Y/N): Y

RCS size: SMALL

Orbital parameters

Period: 98.486 minutes

Inclination: 99.9935 deg

SMA: 7064.428 km

Apoapsis: 694.553 km

Periapsis: 678.033 km

RAAN: 256.0119 deg

Eccentricy: 0.0011692

Argument of periapsis: 111.3682 deg

Mean anomaly: 248.8762 deg

Mean motion: 14.62134252 rev/day

Mean motion (dot): 0.00026573 rev/day2

B* drag term: 0.0052707587 1/REarth

Two-line elements (TLE)

Creation date: Dec. 11, 2025, 7:14 p.m.

Reference frame: TEME

Reference center: EARTH

Epoch: Dec. 11, 2025, 11:38 a.m. UTC

TLE line 0: 0 THORAD AGENA D DEB

TLE line 1: 1 04653U 70025AM 25345.48488552 .00026573 00000-0 52708-2 0 9992

TLE line 2: 2 04653 99.9935 256.0119 0011692 111.3682 248.8762 14.62134252839725

Live tracking on map

Real-time ground track for satellite THORAD AGENA D DEB.

In-orbit conjunctions

A list of the most updated potential collisions computed for object THORAD AGENA D DEB.

Target Orbit TCA Probability of collision Miss distance Type
CZ-6A DEB LEO 2024-12-10 02:06:48 0.00158246 145.0 (m) DEBRIS
NOAA 17 DEB SSO 2024-11-09 00:55:54 0.0002088211 823.0 (m) DEBRIS
CZ-6A DEB LEO 2024-10-28 08:58:57 0.0001007256 753.0 (m) DEBRIS
CBERS 2B SSO 2024-09-13 06:10:03 0.0001018611 345.0 (m) PAYLOAD

Associated space launch

Meteorological research and development satellite

THORAD AGENA D DEB was lifted into orbit during the mission ‘Thorad SLV-2G Agena D | Nimbus 4’, on board a Thorad SLV-2G Agena D space rocket.

The launch took place on April 8, 1970, 8:17 a.m. from Space Launch Complex 2E.

For more information about the launch, click the button.

Launch to space Thorad SLV-2G Agena D | Nimbus 4
Thorad SLV-2G Agena D | Nimbus 4

Agency: N/A

Status: Launch Successful

Launch date: April 8, 1970, 8:17 a.m. UTC

Rocket: Thorad SLV-2G Agena D

Launch pad: Space Launch Complex 2E

Location: Vandenberg SFB, CA, USA

...

Latest news about this satellite

There are no fresh news available about this satellite. Check back as we update our databases every day.


Newsletter sign-up

Weekly statistics, charts and insights to help you stay on top of the space industry.